Time,TemperatureF,DewpointF,PressureIn,WindDirection,WindDirectionDegrees,WindSpeedMPH,WindSpeedGustMPH,Humidity,HourlyPrecipIn,Conditions,Clouds,dailyrainin,SoftwareType,DateUTC
2013-05-11 00:03:00,64.4,54.4,30.20,SSE,153,1.0,3.0,70,0.00,,,0.00,Wunderground v.1.15,2013-05-11 07:03:00,
2013-05-11 00:08:00,64.4,54.4,30.20,SE,137,1.0,3.0,70,0.00,,,0.00,Wunderground v.1.15,2013-05-11 07:08:00,
2013-05-11 00:13:00,64.3,54.3,30.20,SE,142,4.0,6.0,70,0.00,,,0.00,Wunderground v.1.15,2013-05-11 07:13:00,
2013-05-11 00:19:00,64.0,54.0,30.20,SE,145,3.0,6.0,70,0.00,,,0.00,Wunderground v.1.15,2013-05-11 07:19:00,
2013-05-11 00:24:00,63.9,54.3,30.20,SSE,148,2.0,5.0,71,0.00,,,0.00,Wunderground v.1.15,2013-05-11 07:24:00,
2013-05-11 00:29:00,63.8,54.2,30.20,SSE,148,1.0,5.0,71,0.00,,,0.00,Wunderground v.1.15,2013-05-11 07:29:00,
2013-05-11 00:34:00,63.8,54.2,30.21,SSE,148,0.0,3.0,71,0.00,,,0.00,Wunderground v.1.15,2013-05-11 07:34:00,
2013-05-11 00:39:00,63.8,54.2,30.20,SSE,151,10.0,10.0,71,0.00,,,0.00,Wunderground v.1.15,2013-05-11 07:39:00,
2013-05-11 00:45:00,63.6,54.0,30.20,SSE,150,1.0,3.0,71,0.00,,,0.00,Wunderground v.1.15,2013-05-11 07:45:00,
2013-05-11 00:50:00,63.6,54.4,30.20,SSE,150,4.0,4.0,72,0.00,,,0.00,Wunderground v.1.15,2013-05-11 07:50:00,
2013-05-11 00:55:00,63.5,54.3,30.20,SE,146,2.0,4.0,72,0.00,,,0.00,Wunderground v.1.15,2013-05-11 07:55:00,
2013-05-11 01:00:00,63.3,54.1,30.20,SSE,148,3.0,3.0,72,0.00,,,0.00,Wunderground v.1.15,2013-05-11 08:00:00,
2013-05-11 01:05:00,62.8,53.6,30.20,SSE,167,2.0,5.0,72,0.00,,,0.00,Wunderground v.1.15,2013-05-11 08:05:00,
2013-05-11 01:11:00,62.5,53.7,30.20,SSE,166,0.0,3.0,73,0.00,,,0.00,Wunderground v.1.15,2013-05-11 08:11:00,
2013-05-11 01:16:00,62.5,53.7,30.20,SSE,164,3.0,3.0,73,0.00,,,0.00,Wunderground v.1.15,2013-05-11 08:16:00,
2013-05-11 01:22:00,62.3,53.5,30.20,SSE,165,0.0,2.0,73,0.00,,,0.00,Wunderground v.1.15,2013-05-11 08:22:00,
2013-05-11 01:27:00,62.0,53.6,30.20,SSE,165,0.0,2.0,74,0.00,,,0.00,Wunderground v.1.15,2013-05-11 08:27:00,
2013-05-11 01:32:00,61.8,53.4,30.20,SSE,165,0.0,2.0,74,0.00,,,0.00,Wunderground v.1.15,2013-05-11 08:32:00,
2013-05-11 01:37:00,61.8,53.4,30.20,SSE,165,2.0,2.0,74,0.00,,,0.00,Wunderground v.1.15,2013-05-11 08:37:00,
2013-05-11 01:42:00,61.8,53.8,30.20,SSE,165,3.0,3.0,75,0.00,,,0.00,Wunderground v.1.15,2013-05-11 08:42:00,
2013-05-11 01:47:00,61.8,53.8,30.20,SSE,165,0.0,3.0,75,0.00,,,0.00,Wunderground v.1.15,2013-05-11 08:47:00,
2013-05-11 01:53:00,61.9,53.9,30.20,SSE,165,3.0,3.0,75,0.00,,,0.00,Wunderground v.1.15,2013-05-11 08:53:00,
2013-05-11 01:58:00,62.2,54.2,30.20,SSE,165,0.0,3.0,75,0.00,,,0.00,Wunderground v.1.15,2013-05-11 08:58:00,
2013-05-11 02:03:00,62.1,54.1,30.20,SSE,165,0.0,1.0,75,0.00,,,0.00,Wunderground v.1.15,2013-05-11 09:03:00,
2013-05-11 02:08:00,62.1,54.1,30.20,SSE,165,0.0,3.0,75,0.00,,,0.00,Wunderground v.1.15,2013-05-11 09:08:00,
2013-05-11 02:13:00,62.1,54.1,30.20,SSE,164,0.0,2.0,75,0.00,,,0.00,Wunderground v.1.15,2013-05-11 09:13:00,
2013-05-11 02:18:00,62.1,54.1,30.20,SSE,164,0.0,2.0,75,0.00,,,0.00,Wunderground v.1.15,2013-05-11 09:18:00,
2013-05-11 02:23:00,62.0,54.0,30.19,SSE,164,4.0,4.0,75,0.00,,,0.00,Wunderground v.1.15,2013-05-11 09:23:00,
2013-05-11 02:28:00,62.0,54.0,30.19,SSE,159,0.0,5.0,75,0.00,,,0.00,Wunderground v.1.15,2013-05-11 09:28:00,
2013-05-11 02:33:00,62.0,54.0,30.19,SE,146,0.0,3.0,75,0.00,,,0.00,Wunderground v.1.15,2013-05-11 09:33:00,
2013-05-11 02:38:00,61.9,53.9,30.20,SE,146,0.0,4.0,75,0.00,,,0.00,Wunderground v.1.15,2013-05-11 09:38:00,
2013-05-11 02:43:00,61.8,53.8,30.20,SE,146,2.0,6.0,75,0.00,,,0.00,Wunderground v.1.15,2013-05-11 09:43:00,
2013-05-11 02:48:00,61.6,53.6,30.20,SSE,147,0.0,6.0,75,0.00,,,0.00,Wunderground v.1.15,2013-05-11 09:48:00,
2013-05-11 02:53:00,61.2,53.2,30.19,SE,146,0.0,4.0,75,0.00,,,0.00,Wunderground v.1.15,2013-05-11 09:53:00,
2013-05-11 02:58:00,61.2,53.6,30.19,SE,144,0.0,4.0,76,0.00,,,0.00,Wunderground v.1.15,2013-05-11 09:58:00,
2013-05-11 03:03:00,61.1,53.1,30.19,SE,144,1.0,4.0,75,0.00,,,0.00,Wunderground v.1.15,2013-05-11 10:03:00,
2013-05-11 03:08:00,60.9,53.3,30.19,SE,144,0.0,4.0,76,0.00,,,0.00,Wunderground v.1.15,2013-05-11 10:08:00,
2013-05-11 03:13:00,60.7,53.1,30.19,SE,144,0.0,3.0,76,0.00,,,0.00,Wunderground v.1.15,2013-05-11 10:13:00,
2013-05-11 03:18:00,60.8,53.2,30.20,SE,142,0.0,4.0,76,0.00,,,0.00,Wunderground v.1.15,2013-05-11 10:18:00,
2013-05-11 03:23:00,60.9,53.3,30.20,SE,142,0.0,5.0,76,0.00,,,0.00,Wunderground v.1.15,2013-05-11 10:23:00,
2013-05-11 03:28:00,60.6,53.0,30.20,SE,142,4.0,5.0,76,0.00,,,0.00,Wunderground v.1.15,2013-05-11 10:28:00,
2013-05-11 03:33:00,60.3,52.7,30.20,SE,142,0.0,0.0,76,0.00,,,0.00,Wunderground v.1.15,2013-05-11 10:33:00,
2013-05-11 03:38:00,60.0,52.8,30.20,SE,142,0.0,0.0,77,0.00,,,0.00,Wunderground v.1.15,2013-05-11 10:38:00,
2013-05-11 03:43:00,59.8,52.6,30.20,SE,144,0.0,5.0,77,0.00,,,0.00,Wunderground v.1.15,2013-05-11 10:43:00,
2013-05-11 03:48:00,59.6,52.4,30.20,SE,144,0.0,5.0,77,0.00,,,0.00,Wunderground v.1.15,2013-05-11 10:48:00,
2013-05-11 03:53:00,59.4,52.2,30.20,SE,144,0.0,0.0,77,0.00,,,0.00,Wunderground v.1.15,2013-05-11 10:53:00,
2013-05-11 03:58:00,59.2,52.0,30.20,SE,145,0.0,4.0,77,0.00,,,0.00,Wunderground v.1.15,2013-05-11 10:58:00,
2013-05-11 04:03:00,59.2,52.3,30.19,SE,145,0.0,2.0,78,0.00,,,0.00,Wunderground v.1.15,2013-05-11 11:03:00,
2013-05-11 04:08:00,59.2,52.3,30.19,SE,145,2.0,5.0,78,0.00,,,0.00,Wunderground v.1.15,2013-05-11 11:08:00,
2013-05-11 04:13:00,59.0,52.1,30.19,SE,145,0.0,2.0,78,0.00,,,0.00,Wunderground v.1.15,2013-05-11 11:13:00,
2013-05-11 04:18:00,59.0,52.1,30.20,SE,145,0.0,2.0,78,0.00,,,0.00,Wunderground v.1.15,2013-05-11 11:18:00,
2013-05-11 04:23:00,59.0,52.1,30.20,SE,145,0.0,0.0,78,0.00,,,0.00,Wunderground v.1.15,2013-05-11 11:23:00,
2013-05-11 04:28:00,58.9,52.1,30.19,SE,145,0.0,0.0,78,0.00,,,0.00,Wunderground v.1.15,2013-05-11 11:28:00,
2013-05-11 04:33:00,58.8,52.3,30.19,SE,145,0.0,0.0,79,0.00,,,0.00,Wunderground v.1.15,2013-05-11 11:33:00,
2013-05-11 04:38:00,58.7,52.2,30.19,SE,145,0.0,5.0,79,0.00,,,0.00,Wunderground v.1.15,2013-05-11 11:38:00,
2013-05-11 04:43:00,58.7,52.2,30.19,SE,145,0.0,0.0,79,0.00,,,0.00,Wunderground v.1.15,2013-05-11 11:43:00,
2013-05-11 04:48:00,58.5,52.0,30.19,SE,145,0.0,0.0,79,0.00,,,0.00,Wunderground v.1.15,2013-05-11 11:48:00,
2013-05-11 04:53:00,58.6,52.1,30.19,SE,145,0.0,0.0,79,0.00,,,0.00,Wunderground v.1.15,2013-05-11 11:53:00,
2013-05-11 04:58:00,58.9,52.4,30.18,SE,145,0.0,1.0,79,0.00,,,0.00,Wunderground v.1.15,2013-05-11 11:58:00,
2013-05-11 05:03:00,59.0,52.5,30.18,SE,145,0.0,0.0,79,0.00,,,0.00,Wunderground v.1.15,2013-05-11 12:03:00,
2013-05-11 05:08:00,59.0,52.5,30.18,SE,145,1.0,1.0,79,0.00,,,0.00,Wunderground v.1.15,2013-05-11 12:08:00,
2013-05-11 05:13:00,59.0,52.5,30.18,SE,145,0.0,0.0,79,0.00,,,0.00,Wunderground v.1.15,2013-05-11 12:13:00,
2013-05-11 05:18:00,59.0,52.1,30.18,SE,145,1.0,1.0,78,0.00,,,0.00,Wunderground v.1.15,2013-05-11 12:18:00,
2013-05-11 05:23:00,59.0,52.1,30.18,SE,145,0.0,0.0,78,0.00,,,0.00,Wunderground v.1.15,2013-05-11 12:23:00,
2013-05-11 05:28:00,58.9,52.4,30.18,SE,146,3.0,5.0,79,0.00,,,0.00,Wunderground v.1.15,2013-05-11 12:28:00,
2013-05-11 05:33:00,58.8,52.3,30.18,SE,145,2.0,5.0,79,0.00,,,0.00,Wunderground v.1.15,2013-05-11 12:33:00,
2013-05-11 05:39:00,58.7,52.2,30.18,SE,146,1.0,5.0,79,0.00,,,0.00,Wunderground v.1.15,2013-05-11 12:39:00,
2013-05-11 05:44:00,58.6,52.1,30.18,SE,146,0.0,2.0,79,0.00,,,0.00,Wunderground v.1.15,2013-05-11 12:44:00,
2013-05-11 05:49:00,58.4,51.9,30.18,SSE,153,0.0,4.0,79,0.00,,,0.00,Wunderground v.1.15,2013-05-11 12:49:00,
2013-05-11 05:54:00,58.2,51.7,30.18,SSE,153,0.0,1.0,79,0.00,,,0.00,Wunderground v.1.15,2013-05-11 12:54:00,
2013-05-11 05:59:00,58.1,51.6,30.19,SSE,154,0.0,4.0,79,0.00,,,0.00,Wunderground v.1.15,2013-05-11 12:59:00,
2013-05-11 06:04:00,58.2,51.7,30.19,SSE,168,0.0,4.0,79,0.00,,,0.00,Wunderground v.1.15,2013-05-11 13:04:00,
2013-05-11 06:09:00,57.9,51.4,30.20,SSE,168,1.0,4.0,79,0.00,,,0.00,Wunderground v.1.15,2013-05-11 13:09:00,
2013-05-11 06:14:00,57.8,51.3,30.20,South,182,0.0,4.0,79,0.00,,,0.00,Wunderground v.1.15,2013-05-11 13:14:00,
2013-05-11 06:19:00,57.5,51.4,30.20,South,179,0.0,5.0,80,0.00,,,0.00,Wunderground v.1.15,2013-05-11 13:19:00,
2013-05-11 06:24:00,57.5,51.7,30.20,South,181,0.0,3.0,81,0.00,,,0.00,Wunderground v.1.15,2013-05-11 13:24:00,
2013-05-11 06:29:00,57.4,51.6,30.20,South,184,0.0,3.0,81,0.00,,,0.00,Wunderground v.1.15,2013-05-11 13:29:00,
2013-05-11 06:34:00,57.4,51.6,30.20,South,179,0.0,0.0,81,0.00,,,0.00,Wunderground v.1.15,2013-05-11 13:34:00,
2013-05-11 06:39:00,57.5,51.7,30.20,SSW,194,0.0,0.0,81,0.00,,,0.00,Wunderground v.1.15,2013-05-11 13:39:00,
2013-05-11 06:44:00,57.6,51.8,30.20,SSW,194,0.0,4.0,81,0.00,,,0.00,Wunderground v.1.15,2013-05-11 13:44:00,
2013-05-11 06:49:00,57.7,51.6,30.20,SSW,207,0.0,4.0,80,0.00,,,0.00,Wunderground v.1.15,2013-05-11 13:49:00,
2013-05-11 06:54:00,57.8,51.7,30.20,SW,219,1.0,4.0,80,0.00,,,0.00,Wunderground v.1.15,2013-05-11 13:54:00,
2013-05-11 06:59:00,57.9,51.8,30.20,SW,225,0.0,4.0,80,0.00,,,0.00,Wunderground v.1.15,2013-05-11 13:59:00,
2013-05-11 07:04:00,58.1,52.0,30.21,SW,232,0.0,1.0,80,0.00,,,0.00,Wunderground v.1.15,2013-05-11 14:04:00,
2013-05-11 07:09:00,58.2,52.1,30.21,SW,219,0.0,2.0,80,0.00,,,0.00,Wunderground v.1.15,2013-05-11 14:09:00,
2013-05-11 07:14:00,58.2,52.1,30.21,SW,219,0.0,4.0,80,0.00,,,0.00,Wunderground v.1.15,2013-05-11 14:14:00,
2013-05-11 07:19:00,58.2,51.7,30.21,SW,219,0.0,4.0,79,0.00,,,0.00,Wunderground v.1.15,2013-05-11 14:19:00,
2013-05-11 07:24:00,58.3,51.8,30.21,SW,221,0.0,0.0,79,0.00,,,0.00,Wunderground v.1.15,2013-05-11 14:24:00,
2013-05-11 07:29:00,58.4,51.9,30.21,SSW,213,0.0,0.0,79,0.00,,,0.00,Wunderground v.1.15,2013-05-11 14:29:00,
2013-05-11 07:34:00,59.3,52.8,30.21,SSW,200,0.0,0.0,79,0.00,,,0.00,Wunderground v.1.15,2013-05-11 14:34:00,
2013-05-11 07:39:00,60.3,53.1,30.21,SSW,203,0.0,0.0,77,0.00,,,0.00,Wunderground v.1.15,2013-05-11 14:39:00,
2013-05-11 07:44:00,61.3,53.3,30.21,SSW,202,0.0,0.0,75,0.00,,,0.00,Wunderground v.1.15,2013-05-11 14:44:00,
2013-05-11 07:49:00,61.8,53.4,30.21,SSW,198,0.0,0.0,74,0.00,,,0.00,Wunderground v.1.15,2013-05-11 14:49:00,
2013-05-11 07:54:00,62.3,53.5,30.22,SSW,203,0.0,0.0,73,0.00,,,0.00,Wunderground v.1.15,2013-05-11 14:54:00,
2013-05-11 07:59:00,62.7,53.2,30.22,SSW,207,0.0,0.0,71,0.00,,,0.00,Wunderground v.1.15,2013-05-11 14:59:00,
2013-05-11 08:04:00,63.3,53.7,30.22,SSW,205,0.0,0.0,71,0.00,,,0.00,Wunderground v.1.15,2013-05-11 15:04:00,
2013-05-11 08:09:00,64.0,53.6,30.22,SSW,197,0.0,0.0,69,0.00,,,0.00,Wunderground v.1.15,2013-05-11 15:09:00,
2013-05-11 08:14:00,64.6,54.2,30.22,SSW,207,0.0,0.0,69,0.00,,,0.00,Wunderground v.1.15,2013-05-11 15:14:00,
2013-05-11 08:19:00,64.8,54.0,30.22,SSW,211,3.0,4.0,68,0.00,,,0.00,Wunderground v.1.15,2013-05-11 15:19:00,
2013-05-11 08:24:00,65.0,53.8,30.22,SW,226,0.0,0.0,67,0.00,,,0.00,Wunderground v.1.15,2013-05-11 15:24:00,
2013-05-11 08:29:00,65.5,54.2,30.22,SSW,202,0.0,0.0,67,0.00,,,0.00,Wunderground v.1.15,2013-05-11 15:29:00,
2013-05-11 08:34:00,65.5,53.8,30.22,SE,135,0.0,5.0,66,0.00,,,0.00,Wunderground v.1.15,2013-05-11 15:34:00,
2013-05-11 08:39:00,65.8,54.1,30.22,SE,129,0.0,5.0,66,0.00,,,0.00,Wunderground v.1.15,2013-05-11 15:39:00,
2013-05-11 08:44:00,66.5,54.4,30.22,SE,127,0.0,4.0,65,0.00,,,0.00,Wunderground v.1.15,2013-05-11 15:44:00,
2013-05-11 08:49:00,67.1,54.9,30.22,SE,140,0.0,4.0,65,0.00,,,0.00,Wunderground v.1.15,2013-05-11 15:49:00,
2013-05-11 08:54:00,67.4,54.4,30.22,SE,134,1.0,5.0,63,0.00,,,0.00,Wunderground v.1.15,2013-05-11 15:54:00,
2013-05-11 08:59:00,67.7,54.6,30.22,SE,135,0.0,5.0,63,0.00,,,0.00,Wunderground v.1.15,2013-05-11 15:59:00,
2013-05-11 09:04:00,68.2,54.7,30.22,SE,134,2.0,5.0,62,0.00,,,0.00,Wunderground v.1.15,2013-05-11 16:04:00,
2013-05-11 09:09:00,68.5,55.0,30.22,SE,134,5.0,5.0,62,0.00,,,0.00,Wunderground v.1.15,2013-05-11 16:09:00,
2013-05-11 09:14:00,68.8,55.2,30.22,SE,129,2.0,4.0,62,0.00,,,0.00,Wunderground v.1.15,2013-05-11 16:14:00,
2013-05-11 09:19:00,69.2,55.2,30.22,SE,130,0.0,4.0,61,0.00,,,0.00,Wunderground v.1.15,2013-05-11 16:19:00,
2013-05-11 09:24:00,70.0,55.5,30.22,SE,139,0.0,1.0,60,0.00,,,0.00,Wunderground v.1.15,2013-05-11 16:24:00,
2013-05-11 09:29:00,70.1,55.6,30.22,SE,138,0.0,1.0,60,0.00,,,0.00,Wunderground v.1.15,2013-05-11 16:29:00,
2013-05-11 09:34:00,70.3,55.3,30.22,WNW,283,0.0,3.0,59,0.00,,,0.00,Wunderground v.1.15,2013-05-11 16:34:00,
2013-05-11 09:39:00,70.9,55.9,30.22,South,188,4.0,4.0,59,0.00,,,0.00,Wunderground v.1.15,2013-05-11 16:39:00,
2013-05-11 09:44:00,71.3,55.8,30.22,South,169,0.0,3.0,58,0.00,,,0.00,Wunderground v.1.15,2013-05-11 16:44:00,
2013-05-11 09:49:00,72.2,56.1,30.22,South,190,0.0,3.0,57,0.00,,,0.00,Wunderground v.1.15,2013-05-11 16:49:00,
2013-05-11 09:54:00,72.9,56.3,30.22,South,175,0.0,3.0,56,0.00,,,0.00,Wunderground v.1.15,2013-05-11 16:54:00,
2013-05-11 10:00:00,73.4,56.7,30.22,South,175,0.0,3.0,56,0.00,,,0.00,Wunderground v.1.15,2013-05-11 17:00:00,
2013-05-11 10:05:00,73.6,56.4,30.21,SSE,163,0.0,2.0,55,0.00,,,0.00,Wunderground v.1.15,2013-05-11 17:05:00,
2013-05-11 10:10:00,74.2,56.5,30.21,SSE,163,0.0,2.0,54,0.00,,,0.00,Wunderground v.1.15,2013-05-11 17:10:00,
2013-05-11 10:15:00,74.6,57.4,30.21,SSE,163,0.0,1.0,55,0.00,,,0.00,Wunderground v.1.15,2013-05-11 17:15:00,
2013-05-11 10:20:00,75.6,56.7,30.21,SSE,153,0.0,1.0,52,0.00,,,0.00,Wunderground v.1.15,2013-05-11 17:20:00,
2013-05-11 10:25:00,75.2,56.9,30.21,SSE,153,2.0,5.0,53,0.00,,,0.00,Wunderground v.1.15,2013-05-11 17:25:00,
2013-05-11 10:30:00,75.0,56.7,30.21,SSE,154,0.0,5.0,53,0.00,,,0.00,Wunderground v.1.15,2013-05-11 17:30:00,
2013-05-11 10:35:00,75.7,56.8,30.21,SSE,155,0.0,4.0,52,0.00,,,0.00,Wunderground v.1.15,2013-05-11 17:35:00,
2013-05-11 10:40:00,76.4,58.0,30.21,SSE,153,1.0,4.0,53,0.00,,,0.00,Wunderground v.1.15,2013-05-11 17:40:00,
2013-05-11 10:45:00,76.3,57.4,30.21,SSE,152,0.0,5.0,52,0.00,,,0.00,Wunderground v.1.15,2013-05-11 17:45:00,
2013-05-11 10:50:00,77.2,58.2,30.21,SSE,152,0.0,5.0,52,0.00,,,0.00,Wunderground v.1.15,2013-05-11 17:50:00,
2013-05-11 10:55:00,77.9,57.8,30.21,SSE,152,0.0,4.0,50,0.00,,,0.00,Wunderground v.1.15,2013-05-11 17:55:00,
2013-05-11 11:00:00,78.0,57.3,30.21,SSE,148,3.0,5.0,49,0.00,,,0.00,Wunderground v.1.15,2013-05-11 18:00:00,
2013-05-11 11:05:00,78.1,58.5,30.21,South,175,0.0,3.0,51,0.00,,,0.00,Wunderground v.1.15,2013-05-11 18:05:00,
2013-05-11 11:10:00,78.6,57.8,30.21,South,173,0.0,1.0,49,0.00,,,0.00,Wunderground v.1.15,2013-05-11 18:10:00,
2013-05-11 11:15:00,78.8,58.0,30.21,South,170,0.0,3.0,49,0.00,,,0.00,Wunderground v.1.15,2013-05-11 18:15:00,
2013-05-11 11:20:00,79.1,58.3,30.21,South,170,0.0,0.0,49,0.00,,,0.00,Wunderground v.1.15,2013-05-11 18:20:00,
2013-05-11 11:25:00,79.6,58.8,30.20,South,170,0.0,0.0,49,0.00,,,0.00,Wunderground v.1.15,2013-05-11 18:25:00,
2013-05-11 11:30:00,80.7,59.2,30.20,South,169,0.0,0.0,48,0.00,,,0.00,Wunderground v.1.15,2013-05-11 18:30:00,
2013-05-11 11:35:00,80.6,58.5,30.20,SSE,161,0.0,3.0,47,0.00,,,0.00,Wunderground v.1.15,2013-05-11 18:35:00,
2013-05-11 11:40:00,81.3,59.1,30.20,SSE,161,0.0,0.0,47,0.00,,,0.00,Wunderground v.1.15,2013-05-11 18:40:00,
2013-05-11 11:45:00,82.1,58.7,30.20,SSE,161,0.0,4.0,45,0.00,,,0.00,Wunderground v.1.15,2013-05-11 18:45:00,
2013-05-11 11:50:00,82.4,59.5,30.20,SSE,161,0.0,0.0,46,0.00,,,0.00,Wunderground v.1.15,2013-05-11 18:50:00,
2013-05-11 11:55:00,82.5,59.0,30.20,SSE,161,0.0,3.0,45,0.00,,,0.00,Wunderground v.1.15,2013-05-11 18:55:00,
2013-05-11 12:00:00,82.5,59.0,30.20,SSE,157,1.0,1.0,45,0.00,,,0.00,Wunderground v.1.15,2013-05-11 19:00:00,
2013-05-11 12:05:00,82.5,59.6,30.19,SSE,157,0.0,1.0,46,0.00,,,0.00,Wunderground v.1.15,2013-05-11 19:05:00,
2013-05-11 12:10:00,83.2,59.6,30.19,SSE,150,0.0,0.0,45,0.00,,,0.00,Wunderground v.1.15,2013-05-11 19:10:00,
2013-05-11 12:15:00,83.6,59.4,30.19,SSE,149,0.0,0.0,44,0.00,,,0.00,Wunderground v.1.15,2013-05-11 19:15:00,
2013-05-11 12:20:00,84.2,59.3,30.19,SSE,149,0.0,0.0,43,0.00,,,0.00,Wunderground v.1.15,2013-05-11 19:20:00,
2013-05-11 12:25:00,84.8,59.8,30.19,SSE,150,0.0,0.0,43,0.00,,,0.00,Wunderground v.1.15,2013-05-11 19:25:00,
2013-05-11 12:30:00,85.0,60.0,30.19,SSE,150,0.0,0.0,43,0.00,,,0.00,Wunderground v.1.15,2013-05-11 19:30:00,
2013-05-11 12:35:00,85.6,61.2,30.19,SSE,150,2.0,3.0,44,0.00,,,0.00,Wunderground v.1.15,2013-05-11 19:35:00,
2013-05-11 12:40:00,85.8,61.4,30.19,SSE,150,0.0,1.0,44,0.00,,,0.00,Wunderground v.1.15,2013-05-11 19:40:00,
2013-05-11 12:45:00,86.5,60.7,30.18,SSE,149,0.0,3.0,42,0.00,,,0.00,Wunderground v.1.15,2013-05-11 19:45:00,
2013-05-11 12:50:00,86.2,60.4,30.18,SSE,149,0.0,1.0,42,0.00,,,0.00,Wunderground v.1.15,2013-05-11 19:50:00,
2013-05-11 12:55:00,86.7,60.9,30.18,SSE,156,0.0,5.0,42,0.00,,,0.00,Wunderground v.1.15,2013-05-11 19:55:00,
2013-05-11 13:00:00,86.6,60.1,30.18,SSE,157,0.0,1.0,41,0.00,,,0.00,Wunderground v.1.15,2013-05-11 20:00:00,
2013-05-11 13:05:00,86.8,60.3,30.18,SSE,157,1.0,1.0,41,0.00,,,0.00,Wunderground v.1.15,2013-05-11 20:05:00,
2013-05-11 13:10:00,86.6,60.8,30.18,South,178,0.0,1.0,42,0.00,,,0.00,Wunderground v.1.15,2013-05-11 20:10:00,
2013-05-11 13:15:00,87.0,60.5,30.18,South,178,0.0,2.0,41,0.00,,,0.00,Wunderground v.1.15,2013-05-11 20:15:00,
2013-05-11 13:21:00,87.0,61.1,30.18,South,184,0.0,1.0,42,0.00,,,0.00,Wunderground v.1.15,2013-05-11 20:21:00,
2013-05-11 13:26:00,87.2,61.3,30.18,South,182,0.0,1.0,42,0.00,,,0.00,Wunderground v.1.15,2013-05-11 20:26:00,
2013-05-11 13:30:00,87.1,60.5,30.17,South,180,0.0,0.0,41,0.00,,,0.00,Wunderground v.1.15,2013-05-11 20:30:00,
2013-05-11 13:35:00,87.4,61.5,30.17,South,180,0.0,0.0,42,0.00,,,0.00,Wunderground v.1.15,2013-05-11 20:35:00,
2013-05-11 13:40:00,88.3,60.9,30.17,South,180,0.0,0.0,40,0.00,,,0.00,Wunderground v.1.15,2013-05-11 20:40:00,
2013-05-11 13:45:00,89.7,62.2,30.17,South,180,0.0,0.0,40,0.00,,,0.00,Wunderground v.1.15,2013-05-11 20:45:00,
2013-05-11 13:50:00,89.6,61.4,30.17,South,176,0.0,0.0,39,0.00,,,0.00,Wunderground v.1.15,2013-05-11 20:50:00,
2013-05-11 13:55:00,89.3,61.8,30.17,South,176,2.0,3.0,40,0.00,,,0.00,Wunderground v.1.15,2013-05-11 20:55:00,
2013-05-11 14:00:00,89.8,62.3,30.17,SSW,198,3.0,3.0,40,0.00,,,0.00,Wunderground v.1.15,2013-05-11 21:00:00,
2013-05-11 14:06:00,89.5,62.0,30.16,South,191,0.0,4.0,40,0.00,,,0.00,Wunderground v.1.15,2013-05-11 21:06:00,
2013-05-11 14:11:00,89.8,63.0,30.16,SSW,207,1.0,1.0,41,0.00,,,0.00,Wunderground v.1.15,2013-05-11 21:11:00,
2013-05-11 14:16:00,89.8,62.3,30.16,South,191,5.0,7.0,40,0.00,,,0.00,Wunderground v.1.15,2013-05-11 21:16:00,
2013-05-11 14:21:00,89.9,61.6,30.16,South,191,0.0,2.0,39,0.00,,,0.00,Wunderground v.1.15,2013-05-11 21:21:00,
2013-05-11 14:26:00,90.2,61.9,30.16,SSW,211,0.0,5.0,39,0.00,,,0.00,Wunderground v.1.15,2013-05-11 21:26:00,
2013-05-11 14:31:00,90.3,62.0,30.15,SSW,211,0.0,1.0,39,0.00,,,0.00,Wunderground v.1.15,2013-05-11 21:31:00,
2013-05-11 14:36:00,91.4,63.7,30.15,WSW,238,0.0,1.0,40,0.00,,,0.00,Wunderground v.1.15,2013-05-11 21:36:00,
2013-05-11 14:41:00,92.2,62.9,30.15,SW,234,2.0,2.0,38,0.00,,,0.00,Wunderground v.1.15,2013-05-11 21:41:00,
2013-05-11 14:46:00,92.0,62.0,30.15,SSW,211,2.0,5.0,37,0.00,,,0.00,Wunderground v.1.15,2013-05-11 21:46:00,
2013-05-11 14:51:00,91.6,61.6,30.15,SW,225,1.0,5.0,37,0.00,,,0.00,Wunderground v.1.15,2013-05-11 21:51:00,
2013-05-11 14:56:00,91.5,61.6,30.15,SW,225,2.0,5.0,37,0.00,,,0.00,Wunderground v.1.15,2013-05-11 21:56:00,
2013-05-11 15:01:00,93.0,62.9,30.14,SW,226,1.0,2.0,37,0.00,,,0.00,Wunderground v.1.15,2013-05-11 22:01:00,
2013-05-11 15:06:00,93.1,61.4,30.14,South,187,0.0,10.0,35,0.00,,,0.00,Wunderground v.1.15,2013-05-11 22:06:00,
2013-05-11 15:11:00,91.8,61.8,30.14,SW,227,5.0,6.0,37,0.00,,,0.00,Wunderground v.1.15,2013-05-11 22:11:00,
2013-05-11 15:16:00,92.0,62.0,30.14,SW,235,3.0,7.0,37,0.00,,,0.00,Wunderground v.1.15,2013-05-11 22:16:00,
2013-05-11 15:21:00,92.6,62.5,30.14,SW,235,0.0,2.0,37,0.00,,,0.00,Wunderground v.1.15,2013-05-11 22:21:00,
2013-05-11 15:26:00,93.1,63.0,30.13,SW,232,7.0,7.0,37,0.00,,,0.00,Wunderground v.1.15,2013-05-11 22:26:00,
2013-05-11 15:31:00,92.2,62.2,30.13,SW,230,6.0,6.0,37,0.00,,,0.00,Wunderground v.1.15,2013-05-11 22:31:00,
2013-05-11 15:36:00,92.2,62.2,30.13,WSW,237,3.0,7.0,37,0.00,,,0.00,Wunderground v.1.15,2013-05-11 22:36:00,
2013-05-11 15:41:00,92.7,61.8,30.13,SW,235,4.0,4.0,36,0.00,,,0.00,Wunderground v.1.15,2013-05-11 22:41:00,
2013-05-11 15:46:00,92.5,62.4,30.13,SW,232,0.0,4.0,37,0.00,,,0.00,Wunderground v.1.15,2013-05-11 22:46:00,
2013-05-11 15:51:00,92.4,61.6,30.12,WSW,242,4.0,6.0,36,0.00,,,0.00,Wunderground v.1.15,2013-05-11 22:51:00,
2013-05-11 15:56:00,92.4,60.8,30.13,WSW,242,6.0,9.0,35,0.00,,,0.00,Wunderground v.1.15,2013-05-11 22:56:00,
2013-05-11 16:01:00,92.0,61.2,30.12,SW,230,4.0,5.0,36,0.00,,,0.00,Wunderground v.1.15,2013-05-11 23:01:00,
2013-05-11 16:06:00,92.7,61.8,30.12,SSW,204,1.0,5.0,36,0.00,,,0.00,Wunderground v.1.15,2013-05-11 23:06:00,
2013-05-11 16:11:00,92.8,61.1,30.12,SSW,203,2.0,3.0,35,0.00,,,0.00,Wunderground v.1.15,2013-05-11 23:11:00,
2013-05-11 16:16:00,92.4,61.6,30.12,SW,214,0.0,6.0,36,0.00,,,0.00,Wunderground v.1.15,2013-05-11 23:16:00,
2013-05-11 16:21:00,92.5,60.9,30.12,SW,215,2.0,3.0,35,0.00,,,0.00,Wunderground v.1.15,2013-05-11 23:21:00,
2013-05-11 16:26:00,92.9,62.8,30.12,SW,214,5.0,6.0,37,0.00,,,0.00,Wunderground v.1.15,2013-05-11 23:26:00,
2013-05-11 16:31:00,93.1,61.4,30.12,SSW,202,3.0,4.0,35,0.00,,,0.00,Wunderground v.1.15,2013-05-11 23:31:00,
2013-05-11 16:36:00,92.8,61.1,30.12,SSW,202,3.0,4.0,35,0.00,,,0.00,Wunderground v.1.15,2013-05-11 23:36:00,
2013-05-11 16:41:00,93.2,60.7,30.12,SSW,202,0.0,2.0,34,0.00,,,0.00,Wunderground v.1.15,2013-05-11 23:41:00,
2013-05-11 16:46:00,93.7,61.1,30.12,SSW,202,0.0,3.0,34,0.00,,,0.00,Wunderground v.1.15,2013-05-11 23:46:00,
2013-05-11 16:51:00,94.3,61.6,30.12,SSW,202,0.0,3.0,34,0.00,,,0.00,Wunderground v.1.15,2013-05-11 23:51:00,
2013-05-11 16:56:00,94.9,61.3,30.12,SSW,202,5.0,5.0,33,0.00,,,0.00,Wunderground v.1.15,2013-05-11 23:56:00,
2013-05-11 17:01:00,94.6,61.9,30.12,SSW,211,1.0,2.0,34,0.00,,,0.00,Wunderground v.1.15,2013-05-12 00:01:00,
2013-05-11 17:06:00,94.6,61.9,30.11,SSW,211,0.0,2.0,34,0.00,,,0.00,Wunderground v.1.15,2013-05-12 00:06:00,
2013-05-11 17:11:00,94.7,62.0,30.11,SSW,211,0.0,4.0,34,0.00,,,0.00,Wunderground v.1.15,2013-05-12 00:11:00,
2013-05-11 17:16:00,93.7,61.9,30.12,SSW,213,5.0,6.0,35,0.00,,,0.00,Wunderground v.1.15,2013-05-12 00:16:00,
2013-05-11 17:21:00,93.2,61.5,30.12,SSW,213,0.0,3.0,35,0.00,,,0.00,Wunderground v.1.15,2013-05-12 00:21:00,
2013-05-11 17:26:00,92.9,61.2,30.11,SW,217,0.0,3.0,35,0.00,,,0.00,Wunderground v.1.15,2013-05-12 00:26:00,
2013-05-11 17:31:00,92.6,61.7,30.11,SSW,194,2.0,3.0,36,0.00,,,0.00,Wunderground v.1.15,2013-05-12 00:31:00,
2013-05-11 17:36:00,92.4,62.4,30.11,SSW,194,0.0,3.0,37,0.00,,,0.00,Wunderground v.1.15,2013-05-12 00:36:00,
2013-05-11 17:41:00,92.4,62.4,30.11,SSW,193,2.0,4.0,37,0.00,,,0.00,Wunderground v.1.15,2013-05-12 00:41:00,
2013-05-11 17:46:00,92.7,62.6,30.11,SSW,195,3.0,4.0,37,0.00,,,0.00,Wunderground v.1.15,2013-05-12 00:46:00,
2013-05-11 17:51:00,92.5,62.4,30.11,SSW,209,1.0,3.0,37,0.00,,,0.00,Wunderground v.1.15,2013-05-12 00:51:00,
2013-05-11 17:56:00,92.3,63.0,30.11,SW,215,5.0,6.0,38,0.00,,,0.00,Wunderground v.1.15,2013-05-12 00:56:00,
2013-05-11 18:01:00,92.2,62.9,30.11,SW,217,0.0,2.0,38,0.00,,,0.00,Wunderground v.1.15,2013-05-12 01:01:00,
2013-05-11 18:06:00,92.3,63.0,30.11,SW,217,3.0,4.0,38,0.00,,,0.00,Wunderground v.1.15,2013-05-12 01:06:00,
2013-05-11 18:11:00,92.2,62.9,30.11,SSW,213,1.0,4.0,38,0.00,,,0.00,Wunderground v.1.15,2013-05-12 01:11:00,
2013-05-11 18:16:00,91.8,63.3,30.11,SSW,205,1.0,5.0,39,0.00,,,0.00,Wunderground v.1.15,2013-05-12 01:16:00,
2013-05-11 18:21:00,91.8,63.3,30.11,South,190,3.0,4.0,39,0.00,,,0.00,Wunderground v.1.15,2013-05-12 01:21:00,
2013-05-11 18:26:00,91.7,63.2,30.10,SSW,195,3.0,4.0,39,0.00,,,0.00,Wunderground v.1.15,2013-05-12 01:26:00,
2013-05-11 18:31:00,91.6,63.1,30.10,SSW,198,3.0,5.0,39,0.00,,,0.00,Wunderground v.1.15,2013-05-12 01:31:00,
2013-05-11 18:36:00,91.4,63.0,30.10,SSW,198,4.0,5.0,39,0.00,,,0.00,Wunderground v.1.15,2013-05-12 01:36:00,
2013-05-11 18:41:00,91.2,62.8,30.10,SSW,199,0.0,3.0,39,0.00,,,0.00,Wunderground v.1.15,2013-05-12 01:41:00,
2013-05-11 18:46:00,91.0,63.3,30.10,SSW,213,0.0,4.0,40,0.00,,,0.00,Wunderground v.1.15,2013-05-12 01:46:00,
2013-05-11 18:51:00,90.6,63.0,30.10,SSW,202,4.0,5.0,40,0.00,,,0.00,Wunderground v.1.15,2013-05-12 01:51:00,
2013-05-11 18:56:00,90.5,62.9,30.10,South,169,2.0,5.0,40,0.00,,,0.00,Wunderground v.1.15,2013-05-12 01:56:00,
2013-05-11 19:01:00,90.1,63.2,30.11,South,169,5.0,6.0,41,0.00,,,0.00,Wunderground v.1.15,2013-05-12 02:01:00,
2013-05-11 19:06:00,89.7,62.9,30.11,South,178,5.0,8.0,41,0.00,,,0.00,Wunderground v.1.15,2013-05-12 02:06:00,
2013-05-11 19:12:00,89.7,62.9,30.10,SSW,201,2.0,5.0,41,0.00,,,0.00,Wunderground v.1.15,2013-05-12 02:12:00,
2013-05-11 19:17:00,89.6,62.8,30.11,SW,222,0.0,7.0,41,0.00,,,0.00,Wunderground v.1.15,2013-05-12 02:17:00,
2013-05-11 19:22:00,89.3,62.5,30.11,SW,217,5.0,5.0,41,0.00,,,0.00,Wunderground v.1.15,2013-05-12 02:22:00,
2013-05-11 19:27:00,89.0,62.2,30.11,SW,215,1.0,7.0,41,0.00,,,0.00,Wunderground v.1.15,2013-05-12 02:27:00,
2013-05-11 19:32:00,88.6,60.5,30.11,SSW,210,2.0,5.0,39,0.00,,,0.00,Wunderground v.1.15,2013-05-12 02:32:00,
2013-05-11 19:37:00,88.6,60.5,30.11,SSW,203,2.0,6.0,39,0.00,,,0.00,Wunderground v.1.15,2013-05-12 02:37:00,
2013-05-11 19:42:00,88.3,60.2,30.11,SSW,196,3.0,6.0,39,0.00,,,0.00,Wunderground v.1.15,2013-05-12 02:42:00,
2013-05-11 19:47:00,88.0,59.9,30.11,South,169,1.0,6.0,39,0.00,,,0.00,Wunderground v.1.15,2013-05-12 02:47:00,
2013-05-11 19:52:00,87.4,60.1,30.11,South,172,4.0,4.0,40,0.00,,,0.00,Wunderground v.1.15,2013-05-12 02:52:00,
2013-05-11 19:57:00,87.0,59.8,30.11,South,172,1.0,4.0,40,0.00,,,0.00,Wunderground v.1.15,2013-05-12 02:57:00,
2013-05-11 20:02:00,86.5,57.1,30.11,South,179,5.0,7.0,37,0.00,,,0.00,Wunderground v.1.15,2013-05-12 03:02:00,
2013-05-11 20:07:00,86.3,57.0,30.12,South,182,4.0,7.0,37,0.00,,,0.00,Wunderground v.1.15,2013-05-12 03:07:00,
2013-05-11 20:12:00,85.9,57.3,30.11,South,184,3.0,5.0,38,0.00,,,0.00,Wunderground v.1.15,2013-05-12 03:12:00,
2013-05-11 20:17:00,85.5,57.7,30.11,South,184,4.0,6.0,39,0.00,,,0.00,Wunderground v.1.15,2013-05-12 03:17:00,
2013-05-11 20:22:00,84.9,57.9,30.12,South,183,3.0,5.0,40,0.00,,,0.00,Wunderground v.1.15,2013-05-12 03:22:00,
2013-05-11 20:27:00,84.6,58.3,30.12,South,183,5.0,6.0,41,0.00,,,0.00,Wunderground v.1.15,2013-05-12 03:27:00,
2013-05-11 20:32:00,84.1,58.5,30.12,South,183,4.0,5.0,42,0.00,,,0.00,Wunderground v.1.15,2013-05-12 03:32:00,
2013-05-11 20:37:00,83.8,58.3,30.12,South,188,3.0,7.0,42,0.00,,,0.00,Wunderground v.1.15,2013-05-12 03:37:00,
2013-05-11 20:42:00,83.6,58.7,30.12,South,190,2.0,6.0,43,0.00,,,0.00,Wunderground v.1.15,2013-05-12 03:42:00,
2013-05-11 20:47:00,83.2,59.0,30.12,South,190,3.0,7.0,44,0.00,,,0.00,Wunderground v.1.15,2013-05-12 03:47:00,
2013-05-11 20:52:00,82.7,59.2,30.12,South,190,0.0,4.0,45,0.00,,,0.00,Wunderground v.1.15,2013-05-12 03:52:00,
2013-05-11 20:57:00,82.1,58.7,30.12,South,190,1.0,5.0,45,0.00,,,0.00,Wunderground v.1.15,2013-05-12 03:57:00,
2013-05-11 21:01:00,81.7,58.9,30.13,South,190,0.0,2.0,46,0.00,,,0.00,Wunderground v.1.15,2013-05-12 04:01:00,
2013-05-11 21:03:00,81.6,58.8,30.13,South,190,0.0,2.0,46,0.00,,,0.00,Wunderground v.1.15,2013-05-12 04:03:00,
2013-05-11 21:08:00,81.2,59.1,30.13,South,190,3.0,5.0,47,0.00,,,0.00,Wunderground v.1.15,2013-05-12 04:08:00,
2013-05-11 21:13:00,80.9,59.4,30.13,South,190,3.0,4.0,48,0.00,,,0.00,Wunderground v.1.15,2013-05-12 04:13:00,
2013-05-11 21:18:00,80.5,59.0,30.13,South,190,5.0,6.0,48,0.00,,,0.00,Wunderground v.1.15,2013-05-12 04:18:00,
2013-05-11 21:23:00,80.0,59.7,30.13,South,190,3.0,4.0,50,0.00,,,0.00,Wunderground v.1.15,2013-05-12 04:23:00,
2013-05-11 21:28:00,79.6,59.9,30.13,South,190,2.0,5.0,51,0.00,,,0.00,Wunderground v.1.15,2013-05-12 04:28:00,
2013-05-11 21:33:00,79.1,60.0,30.13,South,190,2.0,4.0,52,0.00,,,0.00,Wunderground v.1.15,2013-05-12 04:33:00,
2013-05-11 21:38:00,78.6,60.0,30.13,South,190,1.0,4.0,53,0.00,,,0.00,Wunderground v.1.15,2013-05-12 04:38:00,
2013-05-11 21:43:00,78.0,59.5,30.14,South,190,2.0,7.0,53,0.00,,,0.00,Wunderground v.1.15,2013-05-12 04:43:00,
2013-05-11 21:48:00,77.6,59.6,30.14,South,190,3.0,7.0,54,0.00,,,0.00,Wunderground v.1.15,2013-05-12 04:48:00,
2013-05-11 21:53:00,77.3,59.9,30.14,South,190,2.0,3.0,55,0.00,,,0.00,Wunderground v.1.15,2013-05-12 04:53:00,
2013-05-11 21:58:00,76.9,59.5,30.14,South,190,0.0,5.0,55,0.00,,,0.00,Wunderground v.1.15,2013-05-12 04:58:00,
2013-05-11 22:03:00,76.6,59.2,30.14,South,190,1.0,2.0,55,0.00,,,0.00,Wunderground v.1.15,2013-05-12 05:03:00,
2013-05-11 22:08:00,76.1,59.3,30.14,South,190,1.0,4.0,56,0.00,,,0.00,Wunderground v.1.15,2013-05-12 05:08:00,
2013-05-11 22:13:00,75.7,58.9,30.14,SSW,192,4.0,6.0,56,0.00,,,0.00,Wunderground v.1.15,2013-05-12 05:13:00,
2013-05-11 22:18:00,75.3,58.5,30.14,SSW,195,3.0,9.0,56,0.00,,,0.00,Wunderground v.1.15,2013-05-12 05:18:00,
2013-05-11 22:23:00,75.0,58.2,30.14,SSW,198,3.0,10.0,56,0.00,,,0.00,Wunderground v.1.15,2013-05-12 05:23:00,
2013-05-11 22:28:00,74.6,58.4,30.14,SSW,200,3.0,10.0,57,0.00,,,0.00,Wunderground v.1.15,2013-05-12 05:28:00,
2013-05-11 22:33:00,74.2,58.0,30.15,SSW,202,5.0,6.0,57,0.00,,,0.00,Wunderground v.1.15,2013-05-12 05:33:00,
2013-05-11 22:38:00,74.1,57.9,30.15,SSW,202,4.0,7.0,57,0.00,,,0.00,Wunderground v.1.15,2013-05-12 05:38:00,
2013-05-11 22:44:00,73.9,57.7,30.14,SSW,202,1.0,5.0,57,0.00,,,0.00,Wunderground v.1.15,2013-05-12 05:44:00,
2013-05-11 22:49:00,73.4,57.7,30.14,SSW,202,2.0,5.0,58,0.00,,,0.00,Wunderground v.1.15,2013-05-12 05:49:00,
2013-05-11 22:54:00,73.0,57.3,30.15,SSW,202,6.0,9.0,58,0.00,,,0.00,Wunderground v.1.15,2013-05-12 05:54:00,
2013-05-11 22:59:00,72.5,56.9,30.15,SSW,206,3.0,9.0,58,0.00,,,0.00,Wunderground v.1.15,2013-05-12 05:59:00,
2013-05-11 23:04:00,72.0,56.4,30.15,SSW,205,3.0,9.0,58,0.00,,,0.00,Wunderground v.1.15,2013-05-12 06:04:00,
2013-05-11 23:09:00,71.5,56.4,30.15,SSW,207,9.0,9.0,59,0.00,,,0.00,Wunderground v.1.15,2013-05-12 06:09:00,
2013-05-11 23:14:00,71.2,56.1,30.15,SW,216,5.0,9.0,59,0.00,,,0.00,Wunderground v.1.15,2013-05-12 06:14:00,
2013-05-11 23:19:00,70.7,55.7,30.15,SSW,209,6.0,12.0,59,0.00,,,0.00,Wunderground v.1.15,2013-05-12 06:19:00,
2013-05-11 23:24:00,70.3,55.3,30.15,SSW,203,5.0,13.0,59,0.00,,,0.00,Wunderground v.1.15,2013-05-12 06:24:00,
2013-05-11 23:29:00,69.9,54.9,30.15,SSW,202,4.0,13.0,59,0.00,,,0.00,Wunderground v.1.15,2013-05-12 06:29:00,
2013-05-11 23:34:00,69.5,55.0,30.15,SSW,198,4.0,7.0,60,0.00,,,0.00,Wunderground v.1.15,2013-05-12 06:34:00,
2013-05-11 23:39:00,69.1,54.6,30.15,SSW,192,4.0,9.0,60,0.00,,,0.00,Wunderground v.1.15,2013-05-12 06:39:00,
2013-05-11 23:44:00,68.7,54.3,30.16,South,190,4.0,12.0,60,0.00,,,0.00,Wunderground v.1.15,2013-05-12 06:44:00,
2013-05-11 23:49:00,68.4,54.4,30.16,South,190,9.0,12.0,61,0.00,,,0.00,Wunderground v.1.15,2013-05-12 06:49:00,
2013-05-11 23:54:00,68.1,54.1,30.16,South,188,5.0,9.0,61,0.00,,,0.00,Wunderground v.1.15,2013-05-12 06:54:00,
2013-05-11 23:59:00,68.0,54.0,30.16,South,186,5.0,9.0,61,0.00,,,0.00,Wunderground v.1.15,2013-05-12 06:59:00,